Regional Weather Roundup
Issued by NWS

Home | Current Version | Previous Version | Graphics & Text | Print | Product List | Glossary On
Versions: 1 2 3 4 5 6 7 8 9 10 11 12 13 14 15 16 17 18 19 20 21 22 23 24 25 26 27 28 29 30 31 32 33 34 35 36 37 38 39 40 41 42 43 44 45 46 47 48 49 50
000
ASUS43 KMPX 212301
RWRMN
WEATHER ROUNDUP FOR MINNESOTA
NATIONAL WEATHER SERVICE TWIN CITIES/CHANHASSEN MN
500 PM CST FRI NOV 21 2014


NOTE: "FAIR" INDICATES FEW OR NO CLOUDS BELOW 12,000 FEET WITH NO
SIGNIFICANT WEATHER AND/OR OBSTRUCTIONS TO VISIBILITY. N/A MEANS
CURRENT SKY AND/OR WEATHER CONDITIONS ARE NOT AVAILABLE.

MNZ060>063-068>070-220000-
   Twin Cities Metro

CITY           SKY/WX    TMP DP  RH WIND       PRES   REMARKS
TWIN CITIES    CLOUDY    28  19  69 S13       30.00F WCI  17
ST PAUL        MOCLDY    27  19  72 S14       30.02F WCI  16
BLAINE         CLOUDY    28  21  74 S16G22    29.96F WCI  17
LAKEVILLE      MOCLDY    27  19  74 S15G23    29.99F WCI  15
EDEN PRAIRIE   CLOUDY    30  21  69 S15       29.98F WCI  19
SOUTH ST PAUL  MOCLDY    28  19  69 S10G18    30.01F WCI  19
LAKE ELMO      FAIR      28  19  69 S14       30.01F WCI  17
$$
MNZ001>005-007-008-013>017-022>024-027-028-220000-
   Northwest Minnesota

CITY           SKY/WX    TMP DP  RH WIND       PRES   REMARKS
BEMIDJI        CLOUDY    28  20  72 S15G21    29.72F WCI  16
HALLOCK        CLEAR     30  25  80 S22       29.57S WCI  17
ROSEAU         PTCLDY    28  23  80 S22G28    29.58S WCI  15
WARROAD        PTCLDY    28  23  80 S10G21    29.59S WCI  19
THIEF RVR FALL PTCLDY    28  23  80 S18G26    29.65F WCI  16
CROOKSTON      PTCLDY    30  25  80 S25       29.68F WCI  16
FOSSTON        MOCLDY    27  21  80 S21G28    29.71S WCI  13
DETROIT LAKES  MOCLDY    30  25  80 S14       29.76F WCI  20
MOORHEAD       MOCLDY    30  27  86 S13G22    29.77S WCI  20
PARK RAPIDS    MOCLDY    27  21  78 S15       29.77F WCI  15
MAHNOMEN       FAIR      27  22  79 S16G23    29.73S WCI  15
$$
MNZ006-009>011-018-025>026-220000-
   North Central Minnesota

CITY           SKY/WX    TMP DP  RH WIND       PRES   REMARKS
BAUDETTE       MOCLDY    31  21  66 S22G31    29.59F WCI  18
FLAG ISLAND    PTCLDY    28  23  80 S22G29    29.54F WCI  15
INTL FALLS     MOCLDY    29  18  63 SW15G25   29.67F WCI  18
WASKISH        MOCLDY    30  21  69 S10G23    29.68F WCI  21
BIG FORK       MOCLDY    28  19  69 S16G24    29.74F WCI  17
LONGVILLE      CLOUDY    27  19  74 S15G24    29.80F WCI  15
GRAND RAPIDS   MOCLDY    27  18  69 S16       29.79S WCI  14
CRANE LAKE     CLEAR     28  19  69 S9G22     29.73R WCI  20
ORR            PTCLDY    28  18  64 S14G26    29.71R WCI  17
COOK           PTCLDY    27  19  74 SW15G23   29.76R WCI  15
WALKER         FAIR      27  19  72 S13G20    29.76F WCI  16
$$
MNZ012-019>021-037-220000-
   Northeast Minnesota

CITY           SKY/WX    TMP DP  RH WIND       PRES   REMARKS
DULUTH         CLOUDY    26  16  65 SW21G35   29.85F WCI  12
ELY            PTCLDY    27  18  69 SW17G26   29.75S WCI  14
HIBBING        MOCLDY    28  17  63 SW14G24   29.80S WCI  17
EVELETH        MOCLDY    28  19  69 S17       29.80F WCI  16
DULUTH HARBOR  CLOUDY    28  19  69 SW22      29.91S WCI  15
TWO HARBORS    MOCLDY    30  19  64 SW23G30   29.85S WCI  17
SILVER BAY     MOCLDY    30  19  64 SW13G26   29.83S WCI  20
GRAND MARAIS     N/A     34  26  72 SW35G41   29.84F WCI  19
G MARAIS ARPRT MOCLDY    25  18  74 S13G25    29.78F WCI  13
$$
MNZ029>031-032-039>041-046>048-054>057-064-220000-
   West Central Minnesota

CITY           SKY/WX    TMP DP  RH WIND       PRES   REMARKS
FERGUS FALLS   MOCLDY    28  23  80 S13       29.83S WCI  18
WHEATON        CLOUDY    32  27  80 S12       29.83S WCI  23
MORRIS         CLOUDY    30  25  80 S12       29.83F WCI  21
ALEXANDRIA     CLOUDY    30  24  78 S17       29.84F WCI  18
ELBOW LAKE       N/A     29  25  85 S15       29.81F WCI  18
WADENA         MOCLDY    28  21  74 S12       29.80F WCI  18
GLENWOOD       CLOUDY    30  25  80 S18       29.85F WCI  18
APPLETON       MOCLDY    34  27  75 S7        29.85F WCI  28
BENSON         MOCLDY    30  25  80 S12       29.86F WCI  21
ORTONVILLE     CLOUDY    34  27  75 S9        29.83F WCI  26
MADISON        CLOUDY    36  28  75 S12       29.85F
WILLMAR        FAIR      34  25  69 S5        29.90F WCI  30
$$
MNZ033>034-036-042>043-049>051-058-059-220000-
   Central Minnesota

CITY           SKY/WX    TMP DP  RH WIND       PRES   REMARKS
ST CLOUD       CLOUDY    28  20  71 S14       29.92S WCI  17
SAUK CENTRE    FAIR      29  24  81 S12       29.87F WCI  19
PAYNESVILLE    MOCLDY    27  23  84 SE13G20   29.90S WCI  16
AITKIN         CLOUDY    30  21  69 S12G21    29.84F WCI  21
PINE RIVER     CLOUDY    27  21  80 S13       29.85F WCI  16
BRAINERD       CLOUDY    26  20  77 S15       29.86F WCI  14
STAPLES        CLOUDY    27  21  80 S10       29.83F WCI  17
LONG PRAIRIE   FAIR      28  23  80 S12       29.86F WCI  18
LITTLE FALLS   CLOUDY    28  21  74 S10G16    29.89S WCI  19
LITCHFIELD     CLOUDY    30  25  80 S6        29.92S WCI  24
BUFFALO        CLOUDY    29  22  73 S10       29.96S WCI  20
MAPLE LAKE     CLOUDY    30  24  77 S9G16     29.94F WCI  22
$$
MNZ037-044-045-052-053-220000-
   East Central Minnesota

CITY           SKY/WX    TMP DP  RH WIND       PRES   REMARKS
PRINCETON      CLOUDY    28  21  74 S9G17     29.94F WCI  20
MORA             N/A    N/A N/A N/A MISG        N/A
CAMBRIDGE      MOCLDY    30  18  59 S10       29.94S WCI  21
RUSH CITY      MOCLDY    27  18  69 S9G16     29.96S WCI  17
MOOSE LAKE     CLOUDY    27  18  69 S9G16     29.88F WCI  17
HINCKLEY       FAIR      28  19  69 S14       29.94S WCI  17
CLOQUET        CLOUDY    25  16  68 S15       29.86F WCI  12
MCGREGOR       CLOUDY    30  21  69 S14G21    29.87F WCI  20
$$
MNZ071>073-080-081-089-090-097-098-220000-
   Southwest Minnesota

CITY           SKY/WX    TMP DP  RH WIND       PRES   REMARKS
MONTEVIDEO     MOCLDY    32  27  80 SW7       29.89S WCI  26
GRANITE FALLS  MOCLDY    32  26  80 S13       29.90F WCI  22
CANBY          CLOUDY    36  28  75 SW29G35   29.82F
MARSHALL       CLOUDY    34  25  69 SW30G39   29.83F WCI  20
REDWOOD FALLS  PTCLDY    33  25  72 S15       29.91F WCI  23
OLIVIA         MOCLDY    32  27  80 S9        29.91S WCI  24
PIPESTONE      CLOUDY    30  27  86 S12       29.89S WCI  21
WINDOM         MOCLDY    34  27  75 S16       29.93R WCI  23
WORTHINGTON    MOCLDY    30  25  80 S21G26    29.93S WCI  17
JACKSON        MOCLDY    32  27  80 S20G26    29.95F WCI  20
TRACY          CLOUDY    35  27  74 SW29G36   29.86F WCI  21
SLAYTON        CLOUDY    32  27  82 S18G24    29.91S WCI  20
$$
MNZ065>067-074>077-082>085-091>093-220000-
   South Central Minnesota

CITY           SKY/WX    TMP DP  RH WIND       PRES   REMARKS
MANKATO        CLOUDY    28  19  69 S18G26    29.97F WCI  16
NEW ULM        CLOUDY    28  25  86 S16       29.95R WCI  17
ST JAMES       MOCLDY    30  25  80 SE21G26   29.96F WCI  17
FAIRMONT       MOCLDY    28  21  74 SE21      29.98F WCI  15
GLENCOE        CLOUDY    30  25  80 S12G22    29.95F WCI  21
FARIBAULT      MOCLDY    28  21  74 S16       30.01F WCI  17
OWATONNA       MOCLDY    28  19  69 S22G28    30.02R WCI  15
WASECA         CLOUDY    30  21  69 S22G30    30.03S WCI  17
ALBERT LEA     MOCLDY    28  21  74 S15G24    30.04S WCI  17
$$
MNZ078>079-086>088-094>096-220000-
   Southeast Minnesota

CITY           SKY/WX    TMP DP  RH WIND       PRES   REMARKS
ROCHESTER      MOCLDY    25  17  72 S21       30.06F WCI  11
RED WING       PTCLDY    27  16  63 SE8       30.05F WCI  18
STANTON        MOCLDY    29  20  70 S15G23    30.00F WCI  17
DODGE CENTER   MOCLDY    25  19  80 S20G25    30.03F WCI  11
WINONA         MOCLDY    30  14  51 SE7       30.13S WCI  23
AUSTIN         MOCLDY    27  19  74 S13       30.06F WCI  16
PRESTON        CLOUDY    24  16  71 S13G18    30.10S WCI  12
$$
ABBREVIATIONS USED IN REMARKS
   TC - TEMPERATURES IN CELSIUS
  WCI - WIND CHILL INDEX
   HX - HEAT INDEX
  VSB - VISIBILITY
$$



USA.gov is the U.S. government's official web portal to all federal, state and local government web resources and services.